Location: Callanans Corners
(42.5326°N, 73.8846°W)
Time: 15:48:29
(UTC+00:00)

Cosmos 2322 Rocket - Pass Details

Date: 06 October 2022
Orbit: 833 x 850 km, 71.0° (Epoch: 29 November)

Event Time Altitude Azimuth Distance (km) Brightness Sun altitude
Rises 22:49:10 0° 171° (S) 3,395 5.3 -4.7°
Reaches altitude 10° 22:51:55 10° 160° (SSE) 2,466 4.5 -5.2°
Maximum altitude 22:56:39 28° 103° (ESE) 1,541 3.1 -6.1°
Drops below altitude 10° 23:01:25 10° 46° (NE) 2,483 4.2 -6.9°
Sets 23:04:10 0° 35° (NE) 3,422 5.0 -7.4°
